Date,TemperatureHighF,TemperatureAvgF,TemperatureLowF,DewpointHighF,DewpointAvgF,DewpointLowF,HumidityHigh,HumidityAvg,HumidityLow,PressureMaxIn,PressureMinIn,WindSpeedMaxMPH,WindSpeedAvgMPH,GustSpeedMaxMPH,PrecipitationSumIn
2013-6-1,98.8,78.6,66.9,69.0,65.2,61.9,92,68,32,30.06,29.94,8,0,239,112.80
2013-6-2,93.1,78.5,70.7,69.3,67.0,64.0,92,70,41,29.95,29.79,11,1,239,112.80
2013-6-3,82.3,72.7,61.9,69.8,65.0,51.9,96,78,53,29.93,29.83,6,0,239,0.94
2013-6-4,81.5,62.6,52.1,51.6,45.4,34.8,82,57,19,30.14,29.93,9,1,239,0.00
2013-6-5,86.9,65.1,54.1,51.3,44.4,37.6,67,49,24,30.24,30.14,7,0,239,0.00
2013-6-6,74.5,61.6,53.1,58.8,52.9,48.2,94,75,46,30.18,30.06,8,0,239,0.21
2013-6-7,62.2,59.8,57.1,61.2,58.8,56.0,99,97,94,30.06,29.71,8,0,239,2.35
2013-6-8,79.1,63.0,54.5,66.4,59.0,54.5,100,88,58,30.08,29.65,8,0,239,0.55
2013-6-9,89.8,68.3,57.8,61.4,57.9,54.0,96,74,31,30.21,30.08,8,0,239,0.00
2013-6-10,74.9,64.7,60.7,66.5,61.0,57.8,98,88,73,30.20,29.89,6,0,239,1.32
2013-6-11,79.9,67.1,60.7,69.9,62.9,56.5,98,88,60,29.90,29.63,13,1,239,0.26
2013-6-12,78.0,65.9,59.5,58.8,55.4,50.4,88,71,41,29.89,29.69,13,2,239,0.00
2013-6-13,60.8,58.2,56.6,59.1,55.4,54.1,94,90,86,29.87,29.78,0,0,239,0.09
2013-6-15,86.5,74.9,61.7,55.8,50.7,45.4,78,44,27,30.02,29.95,7,1,13,0.00
2013-6-16,83.3,67.4,56.1,64.2,56.1,51.2,89,69,42,30.02,29.79,10,0,14,0.00
2013-6-17,94.9,73.7,64.0,66.4,61.9,50.8,94,70,23,29.96,29.87,10,0,14,0.00
2013-6-18,88.9,69.6,62.9,67.6,62.4,59.7,94,80,42,29.95,29.86,7,0,14,0.04
2013-6-19,84.9,65.6,56.9,62.0,54.1,41.4,96,72,26,30.20,29.93,8,1,14,0.96
2013-6-20,91.4,67.0,53.5,58.4,53.2,49.4,90,66,28,30.29,30.20,7,0,14,0.96
2013-6-21,91.8,75.8,58.3,62.3,58.3,55.5,92,59,32,30.32,30.26,9,0,14,0.96
2013-6-22,93.0,72.5,60.9,61.9,58.5,56.4,90,65,32,30.30,30.16,9,0,14,0.96
2013-6-23,98.2,78.6,64.2,69.5,62.9,57.8,88,62,33,30.22,30.09,13,0,14,0.96
2013-6-24,98.8,81.0,72.4,71.1,68.6,60.4,91,70,34,30.10,29.97,10,0,14,0.12
2013-6-30,89.0,80.6,74.7,75.2,71.9,69.4,87,75,58,29.96,29.85,6,0,49,0.01